| time (UTC) | temp C | wind direction | speed KPH | gust KPH | rain 1hr cm | rain 24hr cm | rain mn cm | humidity % | barometer mb |
| 20260504014506 | 11 | 139 | 0.0 | 0.0 | 0.00 | 0.00 | 0.00 | 78 | 1017.1 |
| 20260504013018 | 11 | 139 | 0.0 | 0.0 | 0.00 | 0.00 | 0.00 | 75 | 1017.1 |
| 20260504011520 | 12 | 139 | 0.0 | 0.0 | 0.00 | 0.00 | 0.00 | 74 | 1017.1 |
| 20260504010028 | 12 | 139 | 0.0 | 0.0 | 0.00 | 0.00 | 0.00 | 71 | 1016.9 |
| 20260504004543 | 13 | 139 | 0.0 | 0.0 | 0.00 | 0.00 | 0.00 | 70 | 1016.8 |
| 20260504003045 | 14 | 139 | 0.0 | 0.0 | 0.00 | 0.00 | 0.00 | 67 | 1016.7 |
| 20260504001557 | 15 | 139 | 0.0 | 0.0 | 0.00 | 0.00 | 0.00 | 63 | 1016.7 |
| 20260504000105 | 17 | 139 | 0.0 | 0.0 | 0.00 | 0.00 | 0.00 | 56 | 1016.7 |
| 20260503234506 | 18 | 139 | 0.0 | 0.0 | 0.00 | 0.00 | 0.00 | 52 | 1016.9 |
| 20260503233017 | 18 | 170 | 0.0 | 0.0 | 0.00 | 0.00 | 0.00 | 49 | 1017.0 |
| 20260503231532 | 18 | 184 | 0.0 | 0.0 | 0.00 | 0.00 | 0.00 | 48 | 1017.2 |
| 20260503230045 | 18 | 235 | 0.0 | 4.8 | 0.00 | 0.00 | 0.00 | 46 | 1017.3 |
| 20260503224559 | 18 | 289 | 0.0 | 3.2 | 0.00 | 0.00 | 0.00 | 43 | 1017.6 |
| 20260503223005 | 18 | 185 | 0.0 | 6.4 | 0.00 | 0.00 | 0.00 | 43 | 1017.6 |
| 20260503221602 | 18 | 319 | 0.0 | 8.0 | 0.00 | 0.00 | 0.00 | 42 | 1017.6 |
| 20260503220015 | 18 | 121 | 0.0 | 6.4 | 0.00 | 0.00 | 0.00 | 42 | 1017.9 |
| 20260503214526 | 18 | 340 | 1.6 | 8.0 | 0.00 | 0.00 | 0.00 | 44 | 1018.0 |
| 20260503213038 | 18 | 219 | 0.0 | 4.8 | 0.00 | 0.00 | 0.00 | 46 | 1018.2 |
| 20260503211604 | 19 | 208 | 0.0 | 9.7 | 0.00 | 0.00 | 0.00 | 41 | 1018.4 |
| 20260503210008 | 20 | 96 | 1.6 | 6.4 | 0.00 | 0.00 | 0.00 | 39 | 1018.4 |
| 20260503204521 | 19 | 276 | 0.0 | 4.8 | 0.00 | 0.00 | 0.00 | 40 | 1018.6 |
| 20260503203039 | 19 | 162 | 0.0 | 9.7 | 0.00 | 0.00 | 0.00 | 43 | 1018.7 |
| 20260503201555 | 19 | 124 | 1.6 | 6.4 | 0.00 | 0.00 | 0.00 | 40 | 1019.1 |
| 20260503200101 | 18 | 191 | 1.6 | 8.0 | 0.00 | 0.00 | 0.00 | 44 | 1019.3 |
| 20260503194507 | 18 | 298 | 1.6 | 8.0 | 0.00 | 0.00 | 0.00 | 42 | 1019.6 |
| 20260503193034 | 18 | 261 | 0.0 | 6.4 | 0.00 | 0.00 | 0.00 | 45 | 1019.7 |
| 20260503191538 | 18 | 307 | 1.6 | 11.3 | 0.00 | 0.00 | 0.00 | 44 | 1019.9 |
| 20260503190050 | 18 | 178 | 1.6 | 11.3 | 0.00 | 0.00 | 0.00 | 46 | 1020.1 |
| 20260503184554 | 17 | 199 | 0.0 | 9.7 | 0.00 | 0.00 | 0.00 | 46 | 1020.3 |
| 20260503183057 | 17 | 213 | 1.6 | 6.4 | 0.00 | 0.00 | 0.00 | 46 | 1020.3 |
| 20260503181513 | 17 | 300 | 0.0 | 6.4 | 0.00 | 0.00 | 0.00 | 50 | 1020.6 |
| 20260503180031 | 17 | 200 | 0.0 | 11.3 | 0.00 | 0.00 | 0.00 | 50 | 1020.8 |
| 20260503174603 | 17 | 360 | 0.0 | 6.4 | 0.00 | 0.00 | 0.00 | 52 | 1020.9 |
| 20260503173106 | 16 | 204 | 0.0 | 4.8 | 0.00 | 0.00 | 0.00 | 49 | 1021.2 |
| 20260503171514 | 16 | 151 | 0.0 | 3.2 | 0.00 | 0.00 | 0.00 | 52 | 1021.4 |
| 20260503150105 | 12 | 137 | 3.2 | 8.0 | 0.00 | 0.00 | 0.00 | 57 | 1022.5 |
| 20260503140109 | 11 | 98 | 0.0 | 6.4 | 0.00 | 0.00 | 0.00 | 73 | 1022.5 |
| 20260503100106 | 3 | 267 | 0.0 | 0.0 | 0.00 | 0.00 | 0.00 | 94 | 1020.1 |
| 20260503081550 | 5 | 267 | 0.0 | 0.0 | 0.00 | 0.00 | 0.00 | 91 | 1019.7 |
| 20260503071541 | 6 | 267 | 0.0 | 0.0 | 0.00 | 0.00 | 0.00 | 88 | 1019.1 |
| 20260503054503 | 7 | 267 | 0.0 | 0.0 | 0.00 | 0.00 | 0.00 | 86 | 1018.8 |
| 20260503053015 | 7 | 267 | 0.0 | 0.0 | 0.00 | 0.00 | 0.00 | 84 | 1018.7 |
| 20260503051532 | 8 | 267 | 0.0 | 0.0 | 0.00 | 0.00 | 0.00 | 84 | 1018.6 |
| 20260503050039 | 8 | 266 | 0.0 | 0.0 | 0.00 | 0.00 | 0.00 | 82 | 1018.7 |
| 20260503044556 | 8 | 267 | 0.0 | 0.0 | 0.00 | 0.00 | 0.00 | 80 | 1018.7 |
| 20260503043003 | 8 | 267 | 0.0 | 0.0 | 0.00 | 0.00 | 0.00 | 79 | 1018.6 |
| 20260503041513 | 10 | 267 | 0.0 | 0.0 | 0.00 | 0.00 | 0.00 | 76 | 1018.2 |
| 20260503040022 | 10 | 267 | 0.0 | 0.0 | 0.00 | 0.00 | 0.00 | 75 | 1018.2 |
| 20260503034536 | 11 | 267 | 0.0 | 0.0 | 0.00 | 0.00 | 0.00 | 72 | 1018.5 |
| 20260503033053 | 11 | 267 | 0.0 | 0.0 | 0.00 | 0.00 | 0.00 | 70 | 1018.5 |
| 20260503031600 | 12 | 117 | 0.0 | 4.8 | 0.00 | 0.00 | 0.00 | 67 | 1018.5 |
| 20260503030011 | 12 | 101 | 0.0 | 4.8 | 0.00 | 0.00 | 0.00 | 67 | 1018.4 |
| 20260503024530 | 12 | 219 | 0.0 | 0.0 | 0.00 | 0.00 | 0.00 | 67 | 1018.2 |
| 20260503023039 | 12 | 245 | 0.0 | 1.6 | 0.00 | 0.00 | 0.00 | 67 | 1017.8 |
| 20260503021554 | 11 | 13 | 0.0 | 4.8 | 0.00 | 0.00 | 0.00 | 70 | 1017.5 |
| 20260503020005 | 10 | 268 | 0.0 | 0.0 | 0.00 | 0.00 | 0.00 | 75 | 1017.1 |